User: anonymous
Location: Vancouver
(49.2500°N, 123.1330°W)
Time: 02:18:31
(UTC-07:00)
Language:

Cosmos 1408 Rocket - Orbit

View from above orbital plane
View from above orbital plane
View from above satellite
View from above satellite

Ground track
Ground track

The orbit data is extracted from the following two-line orbital elements,

1 13553U 82092B   14112.84294846  .00000683  00000-0  79976-4 0  8798
2 13553 082.5709 226.3788 0020550 245.5824 237.3764 14.83494606706299
Epoch (UTC): 22 April 2014 20:13:50
Eccentricity: 0.0020550
inclination: 82.5709°
perigee height: 604 km
apogee height: 632 km
right ascension of ascending node: 226.3788°
argument of perigee: 245.5824°
revolutions per day: 14.83494606
mean anomaly at epoch: 237.3764°
orbit number at epoch: 70629

The dashed part of the orbit path shows where the satellite is in the earth's shadow,  

DLR